Location: Atherton
(17.2661°S, 145.4859°E)
Time: 21:58:33
(UTC+10:00)

Transit 2A - Pass Details

Date: 22 June 2025
Orbit: 598 x 948 km, 66.7° (Epoch: 19 July)

Event Time Altitude Azimuth Distance (km) Brightness Sun altitude
Rises 09:42:24 0° 353° (N) 3,337 9.8 34.0°
Reaches altitude 10° 09:44:50 10° 358° (N) 2,460 9.3 34.4°
Maximum altitude 09:50:21 49° 72° (ENE) 1,148 8.4 35.3°
Drops below altitude 10° 09:56:17 10° 145° (SE) 2,650 8.8 36.2°
Sets 09:58:59 0° 150° (SSE) 3,618 9.3 36.7°
